| time (UTC) | temp C | wind direction | speed KPH | gust KPH | rain 1hr cm | rain 24hr cm | rain mn cm | humidity % | barometer mb |
| 20260905123012 | 21 | 203 | 3.2 | 0.0 | 0.00 | 0.00 | 0.00 | 71 | 1010.2 |
| 20260905121515 | 21 | 196 | 3.2 | 0.0 | 0.00 | 0.00 | 0.00 | 71 | 1009.9 |
| 20260905120025 | 21 | 192 | 1.6 | 0.0 | 0.00 | 0.00 | 0.00 | 72 | 1009.8 |
| 20260905114512 | 20 | 230 | 0.0 | 0.0 | 0.00 | 0.00 | 0.00 | 72 | 1009.7 |
| 20260905113014 | 20 | 244 | 0.0 | 0.0 | 0.00 | 0.00 | 0.00 | 72 | 1009.4 |
| 20260905111515 | 20 | 244 | 0.0 | 0.0 | 0.00 | 0.00 | 0.00 | 71 | 1009.2 |
| 20260905110017 | 20 | 263 | 0.0 | 0.0 | 0.00 | 0.00 | 0.00 | 70 | 1009.0 |
| 20260905104511 | 21 | 292 | 0.0 | 0.0 | 0.00 | 0.00 | 0.00 | 69 | 1008.8 |
| 20260905103017 | 21 | 295 | 0.0 | 0.0 | 0.00 | 0.00 | 0.00 | 68 | 1008.9 |
| 20260905101509 | 21 | 295 | 0.0 | 0.0 | 0.00 | 0.00 | 0.00 | 69 | 1008.8 |
| 20260905100006 | 21 | 295 | 0.0 | 0.0 | 0.00 | 0.00 | 0.00 | 70 | 1008.8 |
| 20260905094509 | 21 | 295 | 0.0 | 0.0 | 0.00 | 0.00 | 0.00 | 65 | 1008.7 |
| 20260905093005 | 21 | 295 | 0.0 | 0.0 | 0.00 | 0.00 | 0.00 | 64 | 1008.7 |
| 20260905091505 | 21 | 264 | 0.0 | 0.0 | 0.00 | 0.00 | 0.00 | 64 | 1008.5 |
| 20260905090008 | 22 | 312 | 1.6 | 0.0 | 0.00 | 0.00 | 0.00 | 63 | 1008.5 |
| 20260905084503 | 22 | 285 | 0.0 | 0.0 | 0.00 | 0.00 | 0.00 | 62 | 1008.6 |
| 20260905083002 | 22 | 237 | 0.0 | 0.0 | 0.00 | 0.00 | 0.00 | 63 | 1008.6 |
| 20260905081504 | 22 | 292 | 0.0 | 0.0 | 0.00 | 0.00 | 0.00 | 61 | 1008.6 |
| 20260905080003 | 22 | 318 | 0.0 | 0.0 | 0.00 | 0.00 | 0.00 | 62 | 1008.7 |
| 20260905074502 | 22 | 325 | 0.0 | 0.0 | 0.00 | 0.00 | 0.00 | 64 | 1008.7 |
| 20260905073002 | 22 | 323 | 1.6 | 0.0 | 0.00 | 0.00 | 0.00 | 60 | 1008.7 |
| 20260905071502 | 22 | 301 | 0.0 | 0.0 | 0.00 | 0.00 | 0.00 | 60 | 1008.8 |
| 20260905070001 | 22 | 206 | 0.0 | 0.0 | 0.00 | 0.00 | 0.00 | 61 | 1008.8 |
| 20260905064624 | 22 | 243 | 0.0 | 0.0 | 0.00 | 0.00 | 0.00 | 62 | 1008.7 |
| 20260905063102 | 22 | 241 | 0.0 | 0.0 | 0.00 | 0.00 | 0.00 | 67 | 1008.8 |
| 20260905061559 | 22 | 241 | 0.0 | 0.0 | 0.00 | 0.00 | 0.00 | 74 | 1009.0 |
| 20260905060056 | 22 | 240 | 0.0 | 0.0 | 0.00 | 0.00 | 0.00 | 72 | 1009.1 |
| 20260905054557 | 22 | 241 | 0.0 | 0.0 | 0.00 | 0.00 | 0.00 | 72 | 1009.3 |
| 20260905053054 | 22 | 241 | 0.0 | 0.0 | 0.00 | 0.00 | 0.00 | 66 | 1009.6 |
| 20260905051553 | 23 | 241 | 0.0 | 0.0 | 0.00 | 0.00 | 0.00 | 69 | 1009.7 |
| 20260905050056 | 23 | 285 | 0.0 | 0.0 | 0.00 | 0.00 | 0.00 | 64 | 1009.6 |
| 20260905044550 | 23 | 285 | 0.0 | 0.0 | 0.00 | 0.00 | 0.00 | 64 | 1009.6 |
| 20260905043049 | 23 | 285 | 0.0 | 0.0 | 0.00 | 0.00 | 0.00 | 64 | 1009.7 |
| 20260905041554 | 23 | 272 | 0.0 | 0.0 | 0.00 | 0.00 | 0.00 | 64 | 1009.7 |
| 20260905040043 | 23 | 206 | 1.6 | 0.0 | 0.00 | 0.00 | 0.05 | 62 | 1009.7 |
| 20260905034543 | 23 | 329 | 1.6 | 0.0 | 0.00 | 0.00 | 0.05 | 63 | 1009.6 |
| 20260905033043 | 23 | 329 | 1.6 | 0.0 | 0.00 | 0.00 | 0.05 | 63 | 1009.6 |
| 20260905031544 | 23 | 329 | 1.6 | 0.0 | 0.00 | 0.00 | 0.05 | 63 | 1009.5 |
| 20260905030044 | 23 | 277 | 0.0 | 0.0 | 0.00 | 0.00 | 0.05 | 65 | 1009.5 |
| 20260905024549 | 23 | 230 | 0.0 | 0.0 | 0.00 | 0.00 | 0.05 | 67 | 1009.6 |
| 20260905023043 | 23 | 202 | 0.0 | 0.0 | 0.00 | 0.00 | 0.05 | 67 | 1009.7 |
| 20260905021544 | 23 | 182 | 0.0 | 0.0 | 0.00 | 0.00 | 0.05 | 69 | 1009.7 |
| 20260905020042 | 22 | 248 | 0.0 | 0.0 | 0.00 | 0.00 | 0.05 | 74 | 1009.8 |
| 20260905014552 | 22 | 250 | 0.0 | 0.0 | 0.00 | 0.00 | 0.05 | 72 | 1009.7 |
| 20260905013041 | 23 | 250 | 0.0 | 0.0 | 0.00 | 0.00 | 0.05 | 73 | 1009.8 |
| 20260905011541 | 23 | 226 | 0.0 | 0.0 | 0.00 | 0.00 | 0.05 | 70 | 1009.6 |
| 20260905010045 | 23 | 226 | 0.0 | 0.0 | 0.00 | 0.00 | 0.05 | 71 | 1009.5 |
| 20260905004541 | 23 | 226 | 0.0 | 0.0 | 0.00 | 0.00 | 0.05 | 70 | 1009.4 |
| 20260905003041 | 24 | 226 | 0.0 | 0.0 | 0.00 | 0.00 | 0.05 | 69 | 1009.3 |
| 20260905001542 | 25 | 226 | 0.0 | 0.0 | 0.00 | 0.00 | 0.05 | 67 | 1009.4 |
| 20260905000041 | 25 | 226 | 0.0 | 0.0 | 0.00 | 0.00 | 0.05 | 64 | 1009.2 |
| 20260904234546 | 25 | 176 | 1.6 | 0.0 | 0.00 | 0.00 | 0.05 | 61 | 1009.2 |
| 20260904233040 | 26 | 227 | 0.0 | 0.0 | 0.00 | 0.00 | 0.05 | 61 | 1009.2 |
| 20260904231540 | 26 | 216 | 0.0 | 0.0 | 0.00 | 0.00 | 0.05 | 58 | 1009.2 |
| 20260904230040 | 27 | 196 | 3.2 | 0.0 | 0.00 | 0.00 | 0.05 | 54 | 1009.2 |
| 20260904224541 | 27 | 196 | 4.8 | 0.0 | 0.00 | 0.00 | 0.05 | 51 | 1009.3 |
| 20260904223048 | 27 | 150 | 8.0 | 0.0 | 0.00 | 0.00 | 0.05 | 49 | 1009.3 |
| 20260904221548 | 28 | 196 | 8.0 | 0.0 | 0.00 | 0.00 | 0.05 | 47 | 1009.2 |
| 20260904220056 | 28 | 248 | 6.4 | 0.0 | 0.00 | 0.00 | 0.05 | 48 | 1009.2 |
| 20260904214542 | 28 | 205 | 6.4 | 0.0 | 0.00 | 0.00 | 0.05 | 46 | 1009.0 |
| 20260904213040 | 28 | 216 | 9.7 | 0.0 | 0.00 | 0.00 | 0.05 | 47 | 1008.9 |
| 20260904211545 | 28 | 188 | 8.0 | 0.0 | 0.00 | 0.00 | 0.05 | 48 | 1008.8 |
| 20260904210044 | 28 | 279 | 4.8 | 0.0 | 0.00 | 0.00 | 0.05 | 49 | 1009.1 |
| 20260904204536 | 28 | 202 | 8.0 | 0.0 | 0.00 | 0.00 | 0.05 | 49 | 1009.2 |
| 20260904203036 | 28 | 210 | 8.0 | 0.0 | 0.00 | 0.00 | 0.05 | 49 | 1009.2 |
| 20260904201538 | 29 | 234 | 6.4 | 0.0 | 0.00 | 0.00 | 0.05 | 50 | 1009.3 |
| 20260904200040 | 29 | 200 | 9.7 | 0.0 | 0.00 | 0.00 | 0.05 | 51 | 1009.6 |
| 20260904194620 | 28 | 178 | 8.0 | 0.0 | 0.00 | 0.00 | 0.05 | 52 | 1009.7 |
| 20260904193040 | 28 | 198 | 8.0 | 0.0 | 0.00 | 0.00 | 0.05 | 52 | 1009.8 |
| 20260904191537 | 29 | 185 | 8.0 | 0.0 | 0.00 | 0.00 | 0.05 | 52 | 1009.9 |
| 20260904190045 | 29 | 215 | 9.7 | 0.0 | 0.00 | 0.00 | 0.05 | 52 | 1009.8 |
| 20260904184537 | 29 | 198 | 4.8 | 0.0 | 0.00 | 0.00 | 0.05 | 50 | 1010.0 |
| 20260904183036 | 30 | 143 | 4.8 | 0.0 | 0.00 | 0.00 | 0.05 | 50 | 1010.1 |
| 20260904181536 | 29 | 209 | 4.8 | 0.0 | 0.00 | 0.00 | 0.05 | 51 | 1010.0 |
| 20260904180036 | 29 | 205 | 9.7 | 0.0 | 0.00 | 0.00 | 0.05 | 52 | 1010.0 |
| 20260904174530 | 29 | 199 | 8.0 | 0.0 | 0.00 | 0.00 | 0.05 | 54 | 1010.0 |
| 20260904173035 | 28 | 189 | 6.4 | 0.0 | 0.00 | 0.00 | 0.05 | 56 | 1010.0 |
| 20260904171539 | 28 | 333 | 3.2 | 0.0 | 0.00 | 0.00 | 0.05 | 56 | 1010.1 |
| 20260904170030 | 28 | 315 | 8.0 | 0.0 | 0.00 | 0.00 | 0.05 | 54 | 1010.2 |
| 20260904164529 | 28 | 186 | 6.4 | 0.0 | 0.00 | 0.00 | 0.05 | 56 | 1010.3 |
| 20260904163024 | 27 | 199 | 3.2 | 0.0 | 0.00 | 0.00 | 0.05 | 59 | 1010.3 |
| 20260904161526 | 27 | 254 | 1.6 | 0.0 | 0.00 | 0.00 | 0.05 | 58 | 1010.3 |
| 20260904160019 | 27 | 325 | 3.2 | 0.0 | 0.00 | 0.00 | 0.05 | 57 | 1010.3 |
| 20260904154517 | 27 | 318 | 4.8 | 0.0 | 0.00 | 0.00 | 0.05 | 57 | 1010.5 |
| 20260904153023 | 27 | 181 | 3.2 | 0.0 | 0.00 | 0.00 | 0.05 | 60 | 1010.6 |
| 20260904151532 | 27 | 193 | 3.2 | 0.0 | 0.00 | 0.00 | 0.05 | 60 | 1010.8 |
| 20260904150016 | 27 | 289 | 1.6 | 0.0 | 0.00 | 0.00 | 0.05 | 62 | 1010.6 |
| 20260904144515 | 26 | 322 | 1.6 | 0.0 | 0.00 | 0.00 | 0.05 | 62 | 1010.7 |
| 20260904143013 | 26 | 318 | 3.2 | 0.0 | 0.00 | 0.00 | 0.05 | 65 | 1010.7 |
| 20260904141513 | 26 | 171 | 3.2 | 0.0 | 0.00 | 0.00 | 0.05 | 66 | 1010.4 |
| 20260904140011 | 26 | 336 | 3.2 | 0.0 | 0.00 | 0.00 | 0.05 | 70 | 1010.4 |
| 20260904134512 | 25 | 192 | 3.2 | 0.0 | 0.00 | 0.00 | 0.05 | 73 | 1010.3 |
| 20260904133012 | 25 | 240 | 8.0 | 0.0 | 0.00 | 0.00 | 0.05 | 73 | 1010.3 |
| 20260904131512 | 26 | 176 | 8.0 | 0.0 | 0.00 | 0.00 | 0.05 | 72 | 1010.4 |
| 20260904130007 | 25 | 202 | 6.4 | 0.0 | 0.00 | 0.00 | 0.05 | 75 | 1010.3 |
| 20260904124506 | 25 | 189 | 3.2 | 0.0 | 0.00 | 0.00 | 0.05 | 81 | 1010.3 |